Zurück zum Katalog

STARLINK-4116

AktivKommunikationVLEO
NORAD 53164·PAYLOAD·🇺🇸 United States

Gestartet Jul 17, 2022 von Cape Canaveral Space Force Station

Loading…

Nächste Überflüge (nächste 24 Stunden)

TLE

AktuellSource: CelesTrak SupGP

Epoche: Sep 14, 2026, 13:49 UTC

1 53164C 22083AJ  26257.57618056 -.00023255  00000+0 -68705-3 0  2578
2 53164  53.1610  33.1420 0001338  94.2938 199.0845 15.34403329    11

Verfolge STARLINK-4116 in Echtzeit mit AllMySat

Download on the App Store